[[{"header":{"parameterUnit":"m.s-1","parameterCategory":1,"la1":30.2991,"la2":30.254,"lo1":-89.0895,"lo2":-89.0444,"dy":0.0017,"dx":0.0017,"nx":28,"ny":28,"refTime":"2025-11-17T09:00:00:Z","depth":0,"parameterNumber":2,"parameterNumberName":"U-component_of_WINDS"},"data":[0,0,0,0,0,0,0,0,0,0,0,0,0,0,0,0,0,0,0,0,0,0,0,0,0,0,0,0,0,0,0,0,0,0,0,0,0,0,0,0,0,0,0,0,0,0,0,0,0,0,0,0,0,0,0,0,0,0,-0.1634,-0.1633,0,-0.1602,-0.1602,-0.1602,-0.159,-0.159,-0.159,-0.159,-0.156,-0.156,-0.1559,0,0,0,0,0,0,0,0,0,0,0,0,0,-0.1686,-0.1686,-0.1634,-0.1633,-0.1633,-0.1602,-0.1602,-0.1601,-0.159,-0.159,-0.159,-0.159,-0.1561,-0.156,-0.1559,0,0,0,0,0,0,0,0,0,0,0,0,0,-0.166,-0.1685,-0.1634,-0.1623,-0.1622,-0.1602,-0.1602,-0.1601,-0.159,-0.159,-0.159,-0.159,-0.1561,-0.156,-0.1558,-0.1548,0,0,-0.1555,-0.1554,0,0,0,0,0,0,0,0,-0.1662,-0.1658,-0.1625,-0.1624,-0.1623,-0.16,-0.161,-0.1584,-0.159,-0.1602,-0.159,-0.159,-0.1574,-0.1571,-0.1565,-0.1547,-0.1545,-0.1554,-0.1554,-0.1553,-0.1553,0,0,0,0,0,0,0,-0.1664,-0.166,-0.1621,-0.1625,-0.1623,-0.1621,-0.1617,-0.1605,-0.1588,-0.1601,-0.16,-0.1596,-0.1573,-0.1567,-0.1564,-0.1545,-0.1554,-0.1553,-0.1553,-0.1552,-0.1516,-0.1516,0,0,0,0,0,0,-0.1667,-0.1661,-0.1622,-0.162,-0.1643,-0.162,-0.1616,-0.1607,-0.1588,-0.1585,-0.1596,-0.1596,-0.1569,-0.1566,-0.1563,-0.155,-0.1553,-0.1552,-0.1551,-0.1516,-0.1516,-0.1516,0,0,0,0,0,0,-0.1668,-0.1663,-0.1624,-0.1641,-0.1635,-0.1619,-0.1609,-0.1606,-0.16,-0.1584,-0.1581,-0.1592,-0.1569,-0.1565,-0.1552,-0.1548,-0.1551,-0.155,-0.1516,-0.1516,-0.1516,-0.1522,0,0,0,0,0,0,-0.1669,-0.1664,-0.1659,-0.164,-0.1634,-0.1612,-0.1609,-0.1606,-0.1597,-0.1597,-0.158,-0.1577,-0.1568,-0.1554,-0.155,-0.1547,-0.1549,-0.1517,-0.1516,-0.1516,-0.1522,-0.1522,-0.1522,0,0,0,0,0,-0.1671,-0.1663,-0.1659,-0.1654,-0.1628,-0.1612,-0.1608,-0.1597,-0.1597,-0.1593,-0.1582,-0.1578,-0.1549,-0.1552,-0.1549,-0.1544,-0.1517,-0.1516,-0.1516,-0.1522,-0.1522,-0.1522,0,0,0,0,0,0,-0.1682,-0.166,-0.1656,-0.164,-0.1628,-0.161,-0.1603,-0.1598,-0.1586,-0.1586,-0.1574,-0.157,-0.1558,-0.155,-0.1554,-0.1533,-0.1533,-0.1532,-0.1539,-0.1539,-0.1539,-0.1541,-0.1548,0,0,0,0,0,-0.1683,-0.1671,-0.1652,-0.1641,-0.1634,-0.162,-0.1613,-0.1605,-0.1592,-0.1587,-0.1576,-0.1564,-0.1552,-0.1545,-0.1534,-0.1521,-0.1517,-0.1516,-0.1516,-0.1516,-0.1516,-0.1508,-0.1508,-0.1514,-0.1514,-0.1514,0,0,-0.1684,-0.167,-0.1664,-0.1642,-0.1632,-0.162,-0.1616,-0.1604,-0.1595,-0.1586,-0.1572,-0.1563,-0.1549,-0.1536,-0.153,-0.1529,-0.1513,-0.1516,-0.1516,-0.1515,-0.1508,-0.1507,-0.1507,-0.1514,-0.1514,-0.1514,0,0,-0.168,-0.1669,-0.1658,-0.1647,-0.163,-0.1621,-0.1618,-0.1601,-0.1594,-0.158,-0.1573,-0.1563,-0.1543,-0.1533,-0.1526,-0.1518,-0.1514,-0.1515,-0.1515,-0.1508,-0.1507,-0.1507,-0.1504,-0.1504,-0.1514,-0.1514,-0.1514,0,-0.1684,-0.1665,-0.1653,-0.1641,-0.1632,-0.1622,-0.1611,-0.1602,-0.1583,-0.1577,-0.1577,-0.1551,-0.1541,-0.1526,-0.1524,-0.1518,-0.1515,-0.1517,-0.1508,-0.1508,-0.1507,-0.1504,-0.1504,-0.1514,-0.1514,-0.1514,-0.1514,0,-0.1671,-0.1658,-0.1651,-0.1632,-0.1623,-0.1611,-0.1598,-0.159,-0.1584,-0.1574,-0.156,-0.1548,-0.1533,-0.1529,-0.1523,-0.1513,-0.1513,-0.151,-0.151,-0.1507,-0.1504,-0.1503,-0.1515,-0.1515,-0.1515,-0.1514,0,0,-0.1673,-0.1647,-0.1645,-0.1636,-0.1617,-0.1607,-0.1596,-0.1581,-0.1574,-0.1562,-0.1552,-0.1535,-0.1533,-0.1524,-0.1517,-0.1511,-0.1506,-0.151,-0.1509,-0.151,-0.1494,-0.1496,-0.1495,-0.1503,-0.1503,-0.1503,-0.1495,0,-0.1667,-0.1645,-0.1633,-0.1617,-0.1605,-0.1595,-0.1585,-0.1573,-0.1564,-0.1553,-0.1544,-0.1532,-0.153,-0.1524,-0.1518,-0.1508,-0.1503,-0.1509,-0.1495,-0.1494,-0.1498,-0.1494,-0.1496,-0.149,-0.1494,-0.1494,-0.1494,0,-0.1657,-0.1643,-0.1625,-0.1607,-0.1602,-0.1593,-0.1578,-0.1568,-0.1554,-0.1548,-0.1538,-0.1531,-0.152,-0.152,-0.1504,-0.1508,-0.1501,-0.1496,-0.1495,-0.1494,-0.1494,-0.1492,-0.1487,-0.1487,-0.1492,-0.1492,-0.1493,0,-0.1661,-0.1638,-0.1624,-0.1616,-0.1595,-0.1589,-0.1581,-0.1567,-0.1558,-0.1546,-0.1541,-0.1527,-0.152,-0.1511,-0.15,-0.1501,-0.1485,-0.1485,-0.1481,-0.1481,-0.1478,-0.1478,-0.1472,-0.1474,-0.1474,-0.1474,-0.1474,0,-0.1655,-0.1644,-0.1625,-0.1616,-0.1604,-0.1591,-0.158,-0.1571,-0.1558,-0.1548,-0.154,-0.1531,-0.1518,-0.1507,-0.1499,-0.1488,-0.1484,-0.148,-0.1478,-0.148,-0.1481,-0.1476,-0.1477,-0.1474,-0.1474,-0.1474,-0.1474,0,-0.1657,-0.1643,-0.1628,-0.1609,-0.1604,-0.1596,-0.158,-0.1572,-0.1562,-0.155,-0.1546,-0.1532,-0.1519,-0.1508,-0.1491,-0.1486,-0.1474,-0.1471,-0.1478,-0.1477,-0.1474,-0.1474,-0.1465,-0.1463,-0.1465,-0.1465,-0.1465,0,-0.1654,-0.1645,-0.1625,-0.1617,-0.1608,-0.1596,-0.1587,-0.1574,-0.1566,-0.1549,-0.1543,-0.153,-0.1518,-0.1499,-0.1487,-0.1475,-0.1472,-0.1469,-0.147,-0.1473,-0.1472,-0.1473,-0.1472,-0.1469,-0.1469,-0.1469,-0.1469,0,-0.165,-0.1644,-0.1631,-0.1616,-0.1605,-0.1593,-0.1581,-0.1575,-0.156,-0.1551,-0.1538,-0.1529,-0.1511,-0.1498,-0.1484,-0.1476,-0.1471,-0.1469,-0.1468,-0.147,-0.1475,-0.1472,-0.1478,-0.147,-0.147,-0.147,-0.147,-0.147,-0.165,-0.1642,-0.1626,-0.1612,-0.1601,-0.159,-0.1581,-0.157,-0.1558,-0.1542,-0.1536,-0.1522,-0.1509,-0.1489,-0.1481,-0.1471,-0.147,-0.1467,-0.1467,-0.1467,-0.1467,-0.1476,-0.1468,-0.1468,-0.1468,-0.1468,-0.1468,0,-0.1646,-0.1635,-0.1622,-0.1605,-0.1594,-0.1588,-0.1574,-0.1566,-0.1553,-0.1541,-0.153,-0.1514,-0.1501,-0.1489,-0.1475,-0.147,-0.1467,-0.1467,-0.1467,-0.1465,-0.1469,-0.1471,-0.1469,-0.1469,-0.1469,-0.1469,-0.1469,-0.1469,-0.1642,-0.1628,-0.162,-0.1601,-0.159,-0.1576,-0.1568,-0.1558,-0.1548,-0.1531,-0.1519,-0.1511,-0.1499,-0.1484,-0.1473,-0.1469,-0.1465,-0.1466,-0.1462,-0.1465,-0.1465,-0.1465,-0.1468,-0.1465,-0.1465,-0.1459,-0.1459,-0.1459]},{"header":{"parameterUnit":"m.s-1","parameterCategory":1,"la1":30.2991,"la2":30.254,"lo1":-89.0895,"lo2":-89.0444,"dy":0.0017,"dx":0.0017,"nx":28,"ny":28,"refTime":"2025-11-17T09:00:00:Z","depth":0,"parameterNumber":3,"parameterNumberName":"V-component_of_WINDS"},"data":[0,0,0,0,0,0,0,0,0,0,0,0,0,0,0,0,0,0,0,0,0,0,0,0,0,0,0,0,0,0,0,0,0,0,0,0,0,0,0,0,0,0,0,0,0,0,0,0,0,0,0,0,0,0,0,0,0,0,1.1133,1.1133,0,1.1122,1.1122,1.1122,1.1105,1.1105,1.1105,1.1104,1.1093,1.1093,1.1093,0,0,0,0,0,0,0,0,0,0,0,0,0,1.114,1.114,1.1133,1.1133,1.1133,1.1122,1.1122,1.1122,1.1105,1.1105,1.1105,1.1104,1.1093,1.1093,1.1093,0,0,0,0,0,0,0,0,0,0,0,0,0,1.1134,1.114,1.1133,1.1123,1.1122,1.1122,1.1122,1.1122,1.1105,1.1105,1.1104,1.1104,1.1093,1.1093,1.1093,1.1102,0,0,1.1093,1.1093,0,0,0,0,0,0,0,0,1.1134,1.1133,1.1125,1.1124,1.1123,1.1115,1.112,1.1115,1.1105,1.1112,1.1104,1.1104,1.1101,1.11,1.1099,1.1102,1.1101,1.1093,1.1093,1.1093,1.1093,0,0,0,0,0,0,0,1.1135,1.1134,1.1129,1.1125,1.1124,1.1119,1.1118,1.1119,1.1109,1.1111,1.111,1.1109,1.11,1.1099,1.1099,1.1101,1.1093,1.1093,1.1093,1.1093,1.111,1.111,0,0,0,0,0,0,1.1136,1.1134,1.1129,1.1129,1.1128,1.112,1.1118,1.1118,1.1109,1.1107,1.1109,1.1108,1.1099,1.1099,1.1098,1.1108,1.1093,1.1093,1.1093,1.1109,1.111,1.111,0,0,0,0,0,0,1.1137,1.1136,1.113,1.1131,1.113,1.112,1.112,1.1118,1.1117,1.1107,1.1106,1.111,1.1099,1.1098,1.1101,1.1107,1.1093,1.1093,1.1109,1.1109,1.111,1.1127,0,0,0,0,0,0,1.1137,1.1136,1.114,1.1131,1.113,1.1133,1.112,1.1118,1.1117,1.1115,1.1108,1.1106,1.1099,1.1101,1.1101,1.1107,1.1093,1.1108,1.1109,1.111,1.1126,1.1129,1.1131,0,0,0,0,0,1.1137,1.1145,1.114,1.1139,1.1134,1.1133,1.1133,1.1124,1.1117,1.112,1.1114,1.1106,1.1106,1.1102,1.1101,1.1107,1.1108,1.1109,1.111,1.1125,1.1128,1.1131,0,0,0,0,0,0,1.1155,1.1144,1.1138,1.1143,1.1139,1.1131,1.1134,1.1127,1.1125,1.1124,1.1113,1.1111,1.1115,1.1111,1.1106,1.1115,1.1106,1.1107,1.1118,1.112,1.1123,1.1124,1.1093,0,0,0,0,0,1.1159,1.116,1.115,1.1156,1.1154,1.1145,1.1144,1.1137,1.1133,1.1131,1.1125,1.1121,1.112,1.112,1.1119,1.1125,1.1123,1.1129,1.1131,1.1133,1.1134,1.1138,1.114,1.1114,1.1114,1.1113,0,0,1.1169,1.1163,1.1164,1.1159,1.1155,1.1156,1.1143,1.1145,1.1145,1.1131,1.1134,1.1129,1.1124,1.1129,1.113,1.1126,1.1141,1.1134,1.1136,1.1136,1.1139,1.1141,1.1144,1.1114,1.1114,1.1114,0,0,1.1186,1.1182,1.1186,1.1182,1.1176,1.117,1.1171,1.1163,1.1159,1.1161,1.1151,1.1151,1.115,1.1146,1.1144,1.116,1.1152,1.116,1.1171,1.1175,1.1177,1.1178,1.1184,1.1186,1.1161,1.1161,1.1161,0,1.1199,1.1199,1.1189,1.1191,1.1189,1.1176,1.1181,1.1177,1.1171,1.1171,1.1165,1.1163,1.1158,1.1162,1.1166,1.1164,1.1165,1.1161,1.1177,1.1179,1.118,1.1186,1.1188,1.1162,1.1162,1.1161,1.1161,0,1.1215,1.1216,1.122,1.1214,1.1213,1.1216,1.1206,1.1206,1.1199,1.1193,1.1195,1.1189,1.1186,1.1186,1.118,1.1189,1.1186,1.1179,1.117,1.1184,1.1189,1.1191,1.1163,1.1163,1.1162,1.1162,0,0,1.1245,1.1233,1.1235,1.1232,1.1224,1.1224,1.1226,1.1223,1.1223,1.1219,1.1221,1.122,1.1213,1.121,1.1203,1.1206,1.1219,1.1198,1.1198,1.1203,1.1229,1.1235,1.1238,1.1213,1.1214,1.1214,1.1229,0,1.1261,1.1265,1.1255,1.1261,1.1261,1.1248,1.125,1.1246,1.124,1.1239,1.1233,1.1232,1.1223,1.1221,1.1223,1.1217,1.1224,1.1215,1.1215,1.1215,1.1218,1.124,1.1247,1.1262,1.1231,1.1232,1.1232,0,1.1282,1.1278,1.1284,1.1276,1.1275,1.1277,1.1273,1.1273,1.1267,1.1263,1.126,1.1251,1.1253,1.1243,1.1245,1.1239,1.1238,1.1235,1.1235,1.1236,1.1225,1.1242,1.1266,1.1269,1.1235,1.1234,1.1234,0,1.1303,1.13,1.1303,1.1301,1.1291,1.1293,1.1289,1.1282,1.1281,1.1277,1.1276,1.1273,1.1272,1.1269,1.126,1.1254,1.1263,1.1252,1.126,1.126,1.1263,1.1263,1.1289,1.1261,1.1261,1.1261,1.1261,0,1.1323,1.1327,1.1313,1.1315,1.1319,1.1308,1.1312,1.1306,1.1301,1.1301,1.129,1.1291,1.1278,1.1277,1.127,1.1273,1.1272,1.1269,1.1267,1.127,1.1271,1.127,1.1269,1.1262,1.1262,1.1261,1.1261,0,1.1349,1.1339,1.1342,1.1331,1.1329,1.1333,1.1324,1.1325,1.1318,1.1319,1.1319,1.1308,1.1306,1.1297,1.1293,1.1288,1.1294,1.1289,1.1296,1.1295,1.1303,1.1303,1.133,1.1333,1.1303,1.1303,1.1303,0,1.1363,1.1366,1.1356,1.1355,1.1351,1.1351,1.1349,1.1338,1.1336,1.133,1.1332,1.1329,1.1327,1.1325,1.1317,1.1314,1.131,1.132,1.131,1.1313,1.1311,1.1311,1.1312,1.1322,1.1323,1.1323,1.1323,0,1.1389,1.1384,1.1382,1.1378,1.1376,1.1373,1.1369,1.1369,1.1356,1.1355,1.1354,1.1352,1.1348,1.1345,1.1341,1.1336,1.1328,1.1326,1.1328,1.1332,1.1336,1.1334,1.1303,1.1326,1.1326,1.1325,1.1325,1.1325,1.1409,1.1411,1.1404,1.1403,1.1398,1.1394,1.1395,1.1388,1.1386,1.1382,1.1375,1.1374,1.1368,1.1361,1.1357,1.1356,1.1351,1.1353,1.1354,1.1355,1.1357,1.1335,1.1355,1.1355,1.1355,1.1355,1.1355,0,1.1435,1.143,1.1428,1.1423,1.1421,1.1412,1.1407,1.1407,1.1406,1.1401,1.1398,1.1396,1.1394,1.1385,1.1381,1.1383,1.1378,1.1382,1.1382,1.1382,1.1362,1.1361,1.1385,1.1385,1.1385,1.1385,1.1385,1.1385,1.1449,1.1452,1.1446,1.1446,1.144,1.144,1.1437,1.1434,1.1429,1.1427,1.1425,1.1419,1.1412,1.1408,1.1406,1.1403,1.1403,1.1408,1.1404,1.1386,1.1383,1.138,1.138,1.1408,1.1408,1.1424,1.1424,1.1425]}]]